This demonstration page uses our WeatherBlox Daily Observations layout. Learn more.

Left ArrowRight Arrow

39.95238, -75.16362

Hourly Observations for September 6, 2020

Temp ( °F °C ) Dew Point ( °F °C ) Humidity (%) Winds ( mph kmh ) Pressure ( in mb ) Visibility ( mi km ) Precip ( " mm )
12:54 am 00:54 Clear 68 20 57 13.9 68 68 WSW 5 7 30.19 1022 10 16 0.00 0.00
1:54 am 01:54 Clear 67 19.4 57 13.9 71 71 WSW 5 7 30.19 1022 10 16 0.00 0.00
2:54 am 02:54 Clear 67 19.4 58 14.4 73 73 SW 3 6 30.18 1022 10 16 0.00 0.00
3:54 am 03:54 Clear 64 17.8 58 14.4 81 81 Calm 30.18 1022 10 16 0.00 0.00
4:54 am 04:54 Clear 62 16.7 57 13.9 84 84 S 3 6 30.18 1022 10 16 0.00 0.00
5:54 am 05:54 Clear 64 17.8 59 15 84 84 S 3 6 30.18 1022 10 16 0.00 0.00
6:54 am 06:54 Mostly Sunny 64 17.8 58 14.4 81 81 S 3 6 30.20 1023 10 16 0.00 0.00
7:54 am 07:54 Mostly Sunny 66 18.9 61 16.1 84 84 WSW 3 6 30.20 1023 10 16 0.00 0.00
8:54 am 08:54 Mostly Sunny 70 21.1 61 16.1 73 73 S 3 6 30.17 1022 10 16 0.00 0.00
9:54 am 09:54 Mostly Sunny 73 22.8 59 15 62 62 VRB 3 6 30.15 1021 10 16 0.00 0.00
10:54 am 10:54 Sunny 77 25 58 14.4 52 52 W 7 11 30.21 1023 10 16 0.00 0.00
11:54 am 11:54 Sunny 79 26.1 60 15.6 52 52 SW 8 13 30.21 1023 10 16 0.00 0.00
12:54 pm 12:54 Mostly Sunny 81 27.2 54 12.2 39 39 WNW 6 9 30.18 1022 10 16 0.00 0.00
1:54 pm 13:54 Mostly Sunny 83 28.3 53 11.7 36 36 SW 8 13 30.16 1022 10 16 0.00 0.00
2:54 pm 14:54 Mostly Sunny 83 28.3 54 12.2 37 37 VRB 5 7 30.15 1021 10 16 0.00 0.00
3:54 pm 15:54 Mostly Sunny 84 28.9 51 10.6 32 32 WSW 10 17 30.15 1021 10 16 0.00 0.00
4:54 pm 16:54 Mostly Sunny 83 28.3 56 13.3 40 40 SSW 12 19 30.13 1020 10 16 0.00 0.00
5:54 pm 17:54 Mostly Sunny 81 27.2 59 15 47 47 S 9 15 30.12 1020 10 16 0.00 0.00
6:54 pm 18:54 Mostly Sunny 79 26.1 58 14.4 49 49 SSW 9 15 30.13 1020 10 16 0.00 0.00
7:54 pm 19:54 Mostly Clear 75 23.9 57 13.9 54 54 S 7 11 30.14 1021 10 16 0.00 0.00
8:54 pm 20:54 Clear 72 22.2 59 15 64 64 SSE 7 11 30.14 1021 10 16 0.00 0.00
9:54 pm 21:54 Partly Cloudy 72 22.2 61 16.1 68 68 S 12 19 30.14 1021 10 16 0.00 0.00
10:54 pm 22:54 Mostly Cloudy 70 21.1 61 16.1 73 73 SW 7 11 30.14 1021 10 16 0.00 0.00
11:54 pm 23:54 Mostly Cloudy 69 20.6 61 16.1 76 76 SSW 6 9 30.14 1021 10 16 0.00 0.00

Powered by AerisWeather